GW1259 Weather Reports


time (UTC)temp
C
wind
direction
speed
KPH
gust
KPH
rain 1hr
cm
rain 24hr
cm
rain mn
cm
humidity
%
barometer
mb
20260507224558 15 136 3.2 8.0 0.00 0.10 0.05 65 1009.6
20260507223059 15 148 3.2 6.4 0.00 0.10 0.05 65 1009.5
20260507221555 15 141 4.8 8.0 0.00 0.10 0.05 64 1009.2
20260507220059 15 137 4.8 8.0 0.00 0.10 0.05 64 1009.2
20260507214600 15 159 3.2 6.4 0.00 0.10 0.05 63 1009.2
20260507213103 15 149 3.2 6.4 0.00 0.10 0.05 63 1009.2
20260507211554 15 145 3.2 8.0 0.00 0.10 0.05 62 1009.2
20260507210056 16 141 4.8 6.4 0.00 0.10 0.05 60 1009.4
20260507204606 16 0 3.2 6.4 0.00 0.10 0.05 61 1009.3
20260507203106 16 136 6.4 11.3 0.00 0.10 0.05 60 1009.4
20260507201601 16 173 1.6 6.4 0.00 0.10 0.05 61 1009.4
20260507200058 16 139 3.2 8.0 0.00 0.10 0.05 60 1009.3
20260507194556 16 142 4.8 9.7 0.00 0.10 0.05 60 1009.8
20260507193101 15 148 4.8 9.7 0.00 0.10 0.05 60 1010.0
20260507191557 15 140 4.8 9.7 0.00 0.10 0.05 63 1010.1
20260507190054 15 142 6.4 14.5 0.00 0.10 0.05 62 1010.0
20260507184558 16 143 3.2 6.4 0.00 0.10 0.05 59 1010.2
20260507183103 17 144 3.2 8.0 0.00 0.10 0.05 59 1010.2
20260507181558 16 148 3.2 8.0 0.00 0.10 0.05 57 1010.3
20260507174606 16 224 0.0 4.8 0.00 0.10 0.05 56 1010.6
20260507173103 15 19 4.8 12.9 0.00 0.10 0.05 54 1010.6
20260507171613 15 293 3.2 8.0 0.00 0.10 0.05 54 1011.1
20260507170100 14 34 1.6 9.7 0.00 0.10 0.05 59 1011.5
20260507164610 13 0 1.6 4.8 0.00 0.10 0.05 58 1012.1
20260507163059 13 356 1.6 8.0 0.00 0.10 0.05 57 1012.3
20260507161604 13 97 1.6 6.4 0.00 0.10 0.05 59 1012.4
20260507160105 13 239 1.6 9.7 0.00 0.10 0.05 59 1012.4
20260507154558 13 5 1.6 4.8 0.00 0.10 0.05 60 1012.3
20260507153109 12 0 1.6 6.4 0.00 0.10 0.05 62 1012.4
20260507151601 12 8 0.0 8.0 0.00 0.10 0.05 63 1012.7
20260507150107 12 11 0.0 4.8 0.00 0.10 0.05 67 1012.8
20260507144559 12 28 1.6 8.0 0.00 0.20 0.05 64 1013.1
20260507143105 12 0 0.0 6.4 0.00 0.20 0.05 65 1013.2
20260507141558 11 357 0.0 4.8 0.00 0.20 0.05 66 1013.4
20260507140056 11 0 0.0 3.2 0.00 0.20 0.05 68 1013.3
20260507134559 11 321 0.0 3.2 0.00 0.38 0.05 71 1013.5
20260507133101 11 0 0.0 1.6 0.00 0.38 0.05 73 1013.6
20260507131622 11 0 0.0 3.2 0.00 0.38 0.05 71 1013.7
20260507130104 11 0 0.0 6.4 0.00 0.38 0.05 70 1013.5
20260507124558 11 330 0.0 4.8 0.00 0.56 0.05 72 1013.5
20260507123107 11 302 0.0 9.7 0.00 0.56 0.05 71 1013.3
20260507121605 11 73 1.6 11.3 0.00 0.56 0.05 75 1013.4
20260507120058 11 321 1.6 11.3 0.00 0.56 0.05 77 1013.3
20260507114600 11 358 0.0 4.8 0.00 0.58 0.05 78 1013.3
20260507113059 11 0 0.0 6.4 0.00 0.58 0.05 79 1013.1
20260507111558 11 53 0.0 3.2 0.00 0.58 0.05 80 1012.8
20260507110110 11 0 0.0 3.2 0.00 0.58 0.05 82 1012.6
20260507104556 11 0 1.6 3.2 0.00 0.58 0.05 84 1012.7
20260507103058 11 0 0.0 0.0 0.00 0.58 0.05 88 1012.6
20260507101558 11 0 0.0 0.0 0.00 0.58 0.05 89 1012.5
20260507100056 11 0 0.0 0.0 0.00 0.58 0.05 90 1012.3
20260507094608 11 0 0.0 0.0 0.00 0.58 0.05 90 1012.2
20260507093100 11 0 0.0 0.0 0.00 0.58 0.05 90 1012.2
20260507091640 11 0 0.0 0.0 0.00 0.58 0.05 90 1012.2
20260507090105 11 0 0.0 0.0 0.00 0.58 0.05 89 1011.8
20260507084557 11 0 0.0 0.0 0.00 0.58 0.05 89 1011.9
20260507083057 11 0 0.0 0.0 0.00 0.58 0.05 89 1012.3
20260507081555 11 0 0.0 3.2 0.00 0.58 0.05 88 1012.1
20260507080059 11 0 0.0 0.0 0.00 0.58 0.05 88 1011.9
20260507074555 11 0 0.0 1.6 0.00 0.58 0.05 89 1011.6
20260507073053 11 0 1.6 6.4 0.00 0.58 0.05 88 1011.5
20260507071559 12 0 0.0 3.2 0.00 0.58 0.05 90 1011.4
20260507070107 12 0 0.0 3.2 0.00 0.58 0.05 90 1011.5
20260507064600 12 0 1.6 8.0 0.00 0.58 0.05 90 1011.4
20260507063058 12 14 1.6 6.4 0.00 0.58 0.05 90 1011.3
20260507061555 12 0 0.0 3.2 0.00 0.58 0.05 90 1011.6
20260507060105 12 0 0.0 8.0 0.03 0.58 0.05 90 1011.6
20260507054557 12 306 1.6 6.4 0.03 0.58 0.05 90 1011.6
20260507053055 13 350 0.0 6.4 0.05 0.58 0.05 92 1011.2
20260507051557 13 6 0.0 3.2 0.03 0.56 0.03 93 1011.5
20260507050057 13 304 0.0 1.6 0.00 0.56 0.00 91 1011.4
20260507044555 13 0 0.0 6.4 0.00 0.56 0.00 89 1011.0
20260507043059 14 0 0.0 4.8 0.00 0.53 0.00 86 1011.3
20260507041555 14 5 3.2 14.5 0.00 0.53 0.00 85 1011.2
20260507040103 14 0 0.0 3.2 0.00 0.53 0.00 86 1011.5
20260507034601 15 0 0.0 3.2 0.00 0.53 0.53 86 1011.2
20260507033058 15 326 1.6 11.3 0.00 0.53 0.53 83 1010.6
20260507031557 16 44 3.2 17.7 0.00 0.53 0.53 83 1010.9
20260507030055 16 0 0.0 6.4 0.00 0.53 0.53 88 1010.9
20260507024600 16 354 3.2 8.0 0.00 0.53 0.53 88 1010.2
20260507023055 16 271 0.0 3.2 0.00 0.53 0.53 90 1010.3
20260507021558 16 354 0.0 6.4 0.00 0.53 0.53 91 1010.1
20260507020056 17 0 0.0 0.0 0.00 0.53 0.53 91 1010.1
20260507014556 17 0 0.0 1.6 0.00 0.53 0.53 91 1009.8
20260507013056 17 0 0.0 0.0 0.00 0.53 0.53 90 1010.1
20260507011556 17 0 1.6 6.4 0.00 0.53 0.53 90 1009.9
20260507010113 17 12 3.2 8.0 0.00 0.51 0.51 92 1010.2
20260507004557 18 323 0.0 6.4 0.03 0.51 0.51 93 1010.3
20260507003055 18 148 0.0 0.0 0.03 0.51 0.51 94 1009.7
20260507001601 18 0 0.0 1.6 0.03 0.51 0.51 93 1009.7
20260507000105 18 148 0.0 0.0 0.03 0.51 0.51 91 1009.8
20260506234616 19 0 0.0 0.0 0.00 0.46 0.46 89 1009.1
20260506233103 20 0 0.0 0.0 0.00 0.46 0.46 88 1009.0
20260506231557 20 0 0.0 3.2 0.00 0.46 0.46 83 1008.6
20260506230058 20 143 3.2 6.4 0.00 0.46 0.46 80 1008.7